Weather History for KLAF - June, 2013

Change the Weather History Date:

Thursday, June 6, 2013

  Actual Average Record
Temperature  
Mean Temperature 69 °F 69 °F  
Max Temperature 78 °F 80 °F 95 °F (1999)
Min Temperature 59 °F 58 °F 41 °F (1998)
Degree Days  
Heating Degree Days 0 1  
Month to date heating degree days 17 10  
Since 1 June heating degree days 17 10  
Since 1 July heating degree days 5910 5660  
Cooling Degree Days 4 5  
Month to date cooling degree days 8 28  
Year to date cooling degree days 109 105  
Since 1 June cooling degree days 8 28  
Growing Degree Days 18 (Base 50)    
Moisture  
Dew Point 52 °F    
Average Humidity 57    
Maximum Humidity 67    
Minimum Humidity 46    
Precipitation  
Precipitation T in 0.14 in 1.00 in (1972)
Month to date precipitation 0.44 0.89  
Year to date precipitation 19.06 14.91  
Sea Level Pressure  
Sea Level Pressure 29.83 in    
Wind  
Wind Speed 9 mph (NE)    
Max Wind Speed 17 mph    
Max Gust Speed 23 mph    
Visibility 10 miles    
Events      
T = Trace of Precipitation, MM = Missing Value Source: NWS Daily Summary

Daily Weather History Graph

Daily Weather History Graph

Search for Another Location

Airport or City:

Trip Planner

Search our weather history database for the weather conditions in past years. The results will help you decide how hot, cold, wet, or windy it might be!

Date:

Astronomy

Jun. 06, 2013 Rise Set
Actual Time 6:17 AM EDT 9:15 PM EDT
Civil Twilight 5:45 AM EDT 9:48 PM EDT
Nautical Twilight 5:03 AM EDT 10:29 PM EDT
Astronomical Twilight 4:15 AM EDT 11:18 PM EDT
Moon 4:59 AM EDT (6/6) 7:36 PM EDT (6/6)
Length of Visible Light 16h 02m
Length of Day
14h 57m
Waning Crescent, 4% of the Moon is Illuminated
Jun 6
Waning Crescent
Jun 8
New
Jun 16
First Quarter
Jun 23
Full
Jun 30
Last Quarter

Hourly Weather History & Observations

Time (EDT) Temp. Dew Point Humidity Pressure Visibility Wind Dir Wind Speed Gust Speed Precip Events Conditions
12:54 AM 66.9 °F 51.1 °F 57% 29.88 in 10.0 mi East 13.8 mph - N/A   Clear
1:54 AM 64.9 °F 46.9 °F 52% 29.86 in 10.0 mi East 15.0 mph - N/A   Clear
2:54 AM 63.0 °F 48.9 °F 60% 29.85 in 10.0 mi ENE 10.4 mph - N/A   Clear
3:54 AM 62.1 °F 46.0 °F 56% 29.84 in 10.0 mi ENE 9.2 mph - N/A   Clear
4:54 AM 61.0 °F 46.0 °F 58% 29.83 in 10.0 mi ENE 9.2 mph - N/A   Partly Cloudy
5:54 AM 60.1 °F 46.9 °F 62% 29.83 in 10.0 mi ENE 8.1 mph - N/A   Clear
6:54 AM 60.1 °F 46.9 °F 62% 29.83 in 10.0 mi ENE 10.4 mph - N/A   Clear
7:54 AM 59.0 °F 48.0 °F 67% 29.83 in 10.0 mi ENE 8.1 mph - N/A   Mostly Cloudy
8:54 AM 62.1 °F 50.0 °F 65% 29.84 in 10.0 mi ENE 10.4 mph - N/A   Clear
9:54 AM 63.0 °F 51.1 °F 65% 29.85 in 10.0 mi NE 9.2 mph - N/A   Clear
10:54 AM 66.0 °F 53.1 °F 63% 29.83 in 10.0 mi ENE 12.7 mph - N/A   Clear
11:54 AM 69.1 °F 54.0 °F 58% 29.84 in 10.0 mi Variable 3.5 mph - N/A   Clear
12:54 PM 71.1 °F 55.0 °F 57% 29.84 in 10.0 mi NNE 4.6 mph - N/A   Clear
1:54 PM 73.0 °F 55.9 °F 55% 29.82 in 10.0 mi ENE 10.4 mph - N/A   Clear
2:54 PM 75.0 °F 57.0 °F 53% 29.81 in 10.0 mi NNE 5.8 mph - N/A   Partly Cloudy
3:54 PM 77.0 °F 57.0 °F 50% 29.81 in 10.0 mi East 8.1 mph - N/A   Clear
4:54 PM 75.9 °F 57.0 °F 52% 29.81 in 10.0 mi NE 12.7 mph - N/A   Clear
5:54 PM 77.0 °F 57.0 °F 50% 29.80 in 10.0 mi NE 9.2 mph - N/A   Clear
6:54 PM 75.9 °F 53.1 °F 45% 29.80 in 10.0 mi NNE 3.5 mph - N/A   Clear
7:54 PM 73.0 °F 54.0 °F 51% 29.81 in 10.0 mi ENE 5.8 mph - N/A   Clear
8:54 PM 70.0 °F 55.0 °F 59% 29.81 in 10.0 mi NNE 11.5 mph 21.9 mph N/A   Clear
9:54 PM 68.0 °F 54.0 °F 61% 29.82 in 10.0 mi NNE 6.9 mph - N/A   Clear
10:54 PM 66.0 °F 53.1 °F 63% 29.84 in 10.0 mi North 12.7 mph - N/A   Scattered Clouds
11:54 PM 64.0 °F 54.0 °F 70% 29.85 in 10.0 mi North 8.1 mph - N/A   Overcast